Aérodrome :
LOGIN :

S'inscrire | Disclaimer

   EN    FR    IT 

 










Légende :    VFR   VFR Marginal   IFR   IFR Intensif   IFR Très Intensif
Visi : 
Plafond : 
>= 8 km
>= 3000ft
5 à 8 km
1000 à 3000 ft
1500m à 5 km
500 à 1000 ft
800 à 1500m
200 à 500 ft
< 800m
< 200 ft
Symboles :   Orages  Brouillard  Fortes neiges  Fortes précipitations  Vent > 20 kt
SIGMETs :   Divers  Orages  Givrage  Turbulence  Onde Orograph.  Cendres Volcan.







- Altitude de l'aérodrome : 102 ft
- Code IATA : EXT
- Voir les cartes d'approche


EGTE - Exeter

METARs EXPIRÉS :
  • 241420Z 23014KT 9999 VCSH SCT022 19/15 Q1014
  • 241350Z 23011KT 9999 FEW020 SCT025 20/16 Q1014
  • 241320Z 22009KT 9999 VCSH FEW018 SCT022 19/16 Q1014
  • 241250Z 22008KT 9999 VCSH FEW018 SCT020 19/17 Q1014
  • 241220Z 22008KT 9999 VCSH FEW015 SCT020 19/16 Q1014
  • 241150Z VRB04KT 9999 FEW012 SCT020 19/17 Q1015

Prévision TAF périmée.
Pas de NOTAMs connus pour ce terrain.



MET'MAP, la Météo Aéronautique d'un coup d'oeil ! - Copyright ORBIFLY Décembre 2007 - Disclaimer

ORBIFLY MET'MAP TEAM :

Programmation & Développement : Alexandra Zaïnal
Conception & Développement : Baudouin d'Aumeries
Co-Programmation & Développement : Marc-Olivier Méhu
Soutien technique & logistique : Manuel Goepfert

Contact : metmap@orbifly.com




SOURCES & CREDITS :

   NOAA